EW4650 Weather Reports


Display with metric or nautical units.
time (UTC)temp
F
wind
direction
speed
MPH
gust
MPH
rain 1hr
in
rain 24hr
in
rain mn
in
humidity
%
barometer
mb
20240223011057 71 323 7.0 11.0 0.00 0.00 0.00 23 1010.4
20240223010559 71 348 6.0 12.0 0.00 0.00 0.00 22 1010.4
20240223010059 72 309 8.0 12.0 0.00 0.00 0.00 22 1010.4
20240223005556 72 327 6.0 12.0 0.00 0.00 0.00 22 1010.3
20240223005056 73 330 7.0 13.0 0.00 0.00 0.00 21 1010.2
20240223004558 73 350 7.0 13.0 0.00 0.00 0.00 21 1010.2
20240223004056 74 350 5.0 12.0 0.00 0.00 0.00 21 1010.1
20240223003556 74 331 8.0 13.0 0.00 0.00 0.00 20 1009.9
20240223003118 75 309 9.0 13.0 0.00 0.00 0.00 19 1010.0
20240223002554 75 315 7.0 12.0 0.00 0.00 0.00 19 1009.9
20240223002055 75 316 6.0 12.0 0.00 0.00 0.00 19 1009.9
20240223001558 76 299 4.0 16.0 0.00 0.00 0.00 19 1009.9
20240223001055 76 304 7.0 17.0 0.00 0.00 0.00 19 1009.9
20240223000554 76 320 7.0 22.0 0.00 0.00 0.00 19 1009.9
20240223000058 77 316 12.0 22.0 0.00 0.00 0.00 19 1009.8
20240222235556 77 317 10.0 19.0 0.00 0.00 0.00 19 1009.7
20240222235056 77 293 12.0 19.0 0.00 0.00 0.00 19 1009.6
20240222234601 77 297 7.0 18.0 0.00 0.00 0.00 20 1009.5
20240222234053 78 306 10.0 19.0 0.00 0.00 0.00 19 1009.4
20240222233552 78 314 10.0 19.0 0.00 0.00 0.00 19 1009.5
20240222233104 79 319 11.0 17.0 0.00 0.00 0.00 18 1009.5
20240222232552 79 310 8.0 14.0 0.00 0.00 0.00 18 1009.4
20240222232051 79 343 7.0 15.0 0.00 0.00 0.00 19 1009.2
20240222231552 79 282 6.0 19.0 0.00 0.00 0.00 19 1009.1
20240222231052 79 325 9.0 21.0 0.00 0.00 0.00 19 1009.0
20240222230556 79 338 13.0 21.0 0.00 0.00 0.00 18 1009.0
20240222230105 79 319 10.0 19.0 0.00 0.00 0.00 17 1009.1
20240222225546 79 292 8.0 20.0 0.00 0.00 0.00 17 1008.9
20240222225045 79 327 9.0 22.0 0.00 0.00 0.00 17 1008.8
20240222224545 80 307 14.0 22.0 0.00 0.00 0.00 17 1008.8
20240222224044 79 320 9.0 24.0 0.00 0.00 0.00 18 1008.8
20240222223543 80 300 14.0 24.0 0.00 0.00 0.00 17 1008.8
20240222223047 80 342 13.0 21.0 0.00 0.00 0.00 17 1008.9
20240222222542 80 286 11.0 21.0 0.00 0.00 0.00 18 1008.8
20240222222042 80 317 11.0 20.0 0.00 0.00 0.00 18 1008.9
20240222221606 80 289 11.0 20.0 0.00 0.00 0.00 19 1008.9
20240222221041 80 355 11.0 19.0 0.00 0.00 0.00 19 1008.9
20240222220540 80 334 11.0 21.0 0.00 0.00 0.00 18 1009.0
20240222220052 81 324 15.0 21.0 0.00 0.00 0.00 17 1008.9
20240222215538 81 296 12.0 24.0 0.00 0.00 0.00 18 1008.9
20240222215037 81 304 8.0 21.0 0.00 0.00 0.00 20 1008.8
20240222214537 80 329 10.0 21.0 0.00 0.00 0.00 21 1008.8
20240222214035 81 288 12.0 22.0 0.00 0.00 0.00 18 1009.0
20240222213535 81 260 10.0 20.0 0.00 0.00 0.00 19 1009.0
20240222213035 81 288 11.0 20.0 0.00 0.00 0.00 18 1009.0
20240222212535 80 296 12.0 21.0 0.00 0.00 0.00 18 1009.1
20240222212033 81 301 10.0 21.0 0.00 0.00 0.00 19 1009.1
20240222211538 81 306 10.0 21.0 0.00 0.00 0.00 20 1009.0
20240222211035 81 289 15.0 21.0 0.00 0.00 0.00 17 1009.1
20240222210532 80 315 12.0 21.0 0.00 0.00 0.00 19 1009.1
20240222210030 80 335 12.0 23.0 0.00 0.00 0.00 19 1009.2
20240222205532 81 284 15.0 23.0 0.00 0.00 0.00 18 1009.4
20240222205030 80 11 9.0 22.0 0.00 0.00 0.00 19 1009.4
20240222204529 80 307 12.0 23.0 0.00 0.00 0.00 18 1009.6
20240222204031 81 303 10.0 27.0 0.00 0.00 0.00 19 1009.6
20240222203528 80 360 14.0 27.0 0.00 0.00 0.00 19 1009.6
20240222203033 80 315 9.0 25.0 0.00 0.00 0.00 20 1009.6
20240222202527 80 302 13.0 25.0 0.00 0.00 0.00 19 1009.7
20240222202026 80 290 11.0 23.0 0.00 0.00 0.00 19 1009.5
20240222201527 80 271 15.0 23.0 0.00 0.00 0.00 19 1009.6
20240222201025 81 298 11.0 18.0 0.00 0.00 0.00 20 1009.6
20240222200524 80 333 9.0 21.0 0.00 0.00 0.00 21 1009.6
20240222200024 80 301 12.0 21.0 0.00 0.00 0.00 22 1009.7
20240222195523 80 267 8.0 26.0 0.00 0.00 0.00 20 1009.7
20240222195025 80 251 13.0 26.0 0.00 0.00 0.00 21 1009.7
20240222194524 80 309 12.0 24.0 0.00 0.00 0.00 23 1009.9
20240222194021 80 244 12.0 24.0 0.00 0.00 0.00 23 1010.0
20240222193521 80 327 6.0 14.0 0.00 0.00 0.00 24 1010.0
20240222193019 79 317 8.0 21.0 0.00 0.00 0.00 25 1010.2
20240222192519 79 317 10.0 21.0 0.00 0.00 0.00 28 1010.2
20240222192021 79 259 7.0 20.0 0.00 0.00 0.00 31 1010.3
20240222191517 78 310 10.0 20.0 0.00 0.00 0.00 29 1010.4
20240222191016 78 355 8.0 18.0 0.00 0.00 0.00 31 1010.5
20240222190520 78 318 10.0 18.0 0.00 0.00 0.00 31 1010.6
20240222190026 78 306 7.0 22.0 0.00 0.00 0.00 32 1010.7
20240222185518 78 333 16.0 22.0 0.00 0.00 0.00 31 1010.7
20240222185015 78 283 8.0 16.0 0.00 0.00 0.00 34 1010.9
20240222184514 78 360 9.0 15.0 0.00 0.00 0.00 32 1011.0
20240222184014 78 306 9.0 19.0 0.00 0.00 0.00 33 1011.0
20240222183518 77 275 8.0 19.0 0.00 0.00 0.00 34 1011.1
20240222183013 78 333 9.0 18.0 0.00 0.00 0.00 32 1011.2
20240222182513 78 14 5.0 15.0 0.00 0.00 0.00 34 1011.2
20240222182012 77 274 9.0 17.0 0.00 0.00 0.00 32 1011.3
20240222181511 78 313 10.0 18.0 0.00 0.00 0.00 32 1011.3
20240222181010 77 346 8.0 18.0 0.00 0.00 0.00 31 1011.4
20240222180508 77 295 10.0 18.0 0.00 0.00 0.00 29 1011.5
20240222180008 76 274 8.0 18.0 0.00 0.00 0.00 32 1011.5
20240222175508 76 331 12.0 20.0 0.00 0.00 0.00 33 1011.6
20240222175006 76 307 10.0 19.0 0.00 0.00 0.00 34 1011.7
20240222174508 76 298 9.0 19.0 0.00 0.00 0.00 35 1011.7
20240222174004 76 325 12.0 18.0 0.00 0.00 0.00 36 1011.7
20240222173503 76 286 7.0 15.0 0.00 0.00 0.00 41 1011.7
20240222173001 75 327 8.0 22.0 0.00 0.00 0.00 43 1011.7
20240222172559 74 355 13.0 22.0 0.00 0.00 0.00 43 1011.7
20240222172058 73 290 8.0 16.0 0.00 0.00 0.00 54 1011.7
20240222171559 73 291 10.0 16.0 0.00 0.00 0.00 57 1011.7
20240222171054 72 323 8.0 15.0 0.00 0.00 0.00 60 1011.8
20240222170553 71 309 7.0 15.0 0.00 0.00 0.00 64 1011.8
20240222170053 70 297 9.0 15.0 0.00 0.00 0.00 65 1011.7
20240222165553 70 319 8.0 15.0 0.00 0.00 0.00 67 1011.6
20240222165049 70 296 9.0 16.0 0.00 0.00 0.00 68 1011.6
20240222164549 69 300 8.0 17.0 0.00 0.00 0.00 72 1011.7
20240222164046 69 286 5.0 17.0 0.00 0.00 0.00 75 1011.5
20240222163545 68 313 6.0 12.0 0.00 0.00 0.00 79 1011.5
20240222163044 67 271 5.0 13.0 0.00 0.00 0.00 80 1011.7
20240222162543 68 286 7.0 13.0 0.00 0.00 0.00 80 1011.8
20240222162042 68 248 6.0 15.0 0.00 0.00 0.00 83 1011.7
20240222161542 67 265 6.0 15.0 0.00 0.00 0.00 87 1011.8
20240222161040 66 230 6.0 12.0 0.00 0.00 0.00 91 1011.6
20240222160537 65 280 4.0 12.0 0.00 0.00 0.00 93 1011.8
20240222160043 64 293 3.0 13.0 0.00 0.00 0.00 96 1011.7
20240222155537 64 279 7.0 13.0 0.00 0.00 0.00 96 1011.6
20240222155035 63 253 4.0 10.0 0.00 0.00 0.00 97 1011.6
20240222154537 62 223 6.0 11.0 0.00 0.00 0.00 98 1011.7
20240222154033 62 247 7.0 11.0 0.00 0.00 0.00 98 1011.7
20240222153531 61 261 4.0 11.0 0.00 0.00 0.00 98 1011.7
20240222153041 61 255 6.0 11.0 0.00 0.00 0.00 98 1011.8
20240222152531 61 253 7.0 11.0 0.00 0.00 0.00 99 1011.8
20240222152030 61 259 8.0 11.0 0.00 0.00 0.00 99 1011.8
20240222151530 61 241 5.0 11.0 0.00 0.00 0.00 99 1011.7
20240222151031 61 254 8.0 11.0 0.00 0.00 0.00 99 1011.5
20240222150530 61 241 6.0 10.0 0.00 0.00 0.00 99 1011.5
20240222150030 61 278 6.0 11.0 0.00 0.00 0.00 99 1011.6
20240222145530 61 242 8.0 11.0 0.00 0.00 0.00 99 1011.7
20240222145034 60 222 6.0 10.0 0.00 0.00 0.00 99 1011.6
20240222144528 60 221 6.0 9.0 0.00 0.00 0.00 99 1011.4
20240222144029 60 229 5.0 7.0 0.00 0.00 0.00 99 1011.3
20240222143527 60 252 5.0 8.0 0.00 0.00 0.00 99 1011.2
20240222143026 60 233 4.0 8.0 0.00 0.00 0.00 99 1011.0
20240222142529 60 263 4.0 8.0 0.00 0.00 0.00 99 1010.9
20240222142126 60 230 4.0 9.0 0.00 0.00 0.00 99 1011.0
20240222141526 60 231 6.0 9.0 0.00 0.00 0.00 99 1011.2
20240222141026 60 246 5.0 10.0 0.00 0.00 0.00 99 1011.2
20240222140528 60 227 7.0 10.0 0.00 0.00 0.00 99 1011.2
20240222140027 60 242 6.0 10.0 0.00 0.00 0.00 99 1010.9
20240222135525 60 232 7.0 10.0 0.00 0.00 0.00 99 1010.9
20240222135025 60 232 4.0 9.0 0.00 0.00 0.00 99 1010.9
20240222134526 59 227 5.0 10.0 0.00 0.00 0.00 99 1010.8
20240222134028 59 221 7.0 10.0 0.00 0.00 0.00 99 1010.7
20240222133525 59 236 8.0 10.0 0.00 0.00 0.00 99 1010.7
20240222133024 59 232 5.0 9.0 0.00 0.00 0.00 99 1010.6
20240222132527 59 203 5.0 7.0 0.00 0.00 0.00 99 1010.5
20240222132024 59 244 3.0 10.0 0.00 0.00 0.00 99 1010.4
20240222131537 59 223 5.0 10.0 0.00 0.00 0.00 99 1010.3
20240222131028 59 221 5.0 9.0 0.00 0.00 0.00 98 1010.3
20240222130525 59 234 5.0 9.0 0.00 0.00 0.00 98 1010.1
20240222130029 59 200 5.0 9.0 0.00 0.00 0.00 98 1010.2
20240222125527 59 187 3.0 6.0 0.00 0.00 0.00 98 1010.3
20240222125023 59 203 3.0 8.0 0.00 0.00 0.00 98 1010.3
20240222124522 59 211 4.0 9.0 0.00 0.00 0.00 98 1010.5
20240222124022 59 217 4.0 7.0 0.00 0.00 0.00 98 1010.5
20240222123525 59 212 4.0 7.0 0.00 0.00 0.00 98 1010.5
20240222123022 59 182 2.0 4.0 0.00 0.00 0.00 98 1010.4
20240222122522 59 213 2.0 6.0 0.00 0.00 0.00 98 1010.5
20240222122021 59 215 3.0 7.0 0.00 0.00 0.00 98 1010.5
20240222121521 59 210 3.0 7.0 0.00 0.00 0.00 98 1010.5
20240222121020 59 211 4.0 6.0 0.00 0.00 0.00 98 1010.5
20240222120524 59 218 2.0 5.0 0.00 0.00 0.00 98 1010.3
20240222120022 59 196 3.0 5.0 0.00 0.00 0.00 98 1010.3
20240222115523 59 218 3.0 5.0 0.00 0.00 0.00 98 1010.4
20240222115020 59 207 3.0 5.0 0.00 0.00 0.00 98 1010.4
20240222114524 59 189 2.0 4.0 0.00 0.00 0.00 98 1010.3
20240222114021 59 204 2.0 4.0 0.00 0.00 0.00 98 1010.3
20240222113524 59 182 2.0 4.0 0.00 0.00 0.00 98 1010.4
20240222113021 59 190 2.0 4.0 0.00 0.00 0.00 98 1010.5
20240222112519 59 214 2.0 4.0 0.00 0.00 0.00 98 1010.7
20240222112019 59 210 2.0 4.0 0.00 0.00 0.00 98 1010.5
20240222111519 59 213 3.0 4.0 0.00 0.00 0.00 98 1010.5
20240222111018 59 211 2.0 5.0 0.00 0.00 0.00 98 1010.4
20240222110518 59 213 3.0 4.0 0.00 0.00 0.00 98 1010.5
20240222110019 59 213 3.0 4.0 0.00 0.00 0.00 98 1010.7
20240222105522 59 221 2.0 4.0 0.00 0.00 0.00 98 1010.7
20240222105017 59 220 2.0 4.0 0.00 0.00 0.00 98 1010.6
20240222104519 59 211 2.0 4.0 0.00 0.00 0.00 98 1010.7
20240222104017 59 207 1.0 5.0 0.00 0.00 0.00 98 1010.8
20240222103522 59 258 3.0 5.0 0.00 0.00 0.00 98 1010.9
20240222103030 59 246 3.0 5.0 0.00 0.00 0.00 98 1010.9
20240222102516 59 241 2.0 5.0 0.00 0.00 0.00 98 1010.8
20240222102018 59 229 3.0 7.0 0.00 0.00 0.00 98 1010.8
20240222101522 59 240 3.0 9.0 0.00 0.00 0.00 98 1010.9
20240222101015 59 238 6.0 9.0 0.00 0.00 0.00 98 1010.7
20240222100615 59 241 3.0 9.0 0.00 0.00 0.00 98 1010.8
20240222100014 59 195 6.0 9.0 0.00 0.00 0.00 97 1010.6
20240222095517 59 246 5.0 11.0 0.00 0.00 0.00 97 1010.9
20240222095016 60 203 5.0 9.0 0.00 0.00 0.00 97 1010.7
20240222094513 60 253 4.0 10.0 0.00 0.00 0.00 97 1011.1
20240222094017 60 210 7.0 14.0 0.00 0.00 0.00 97 1010.3
20240222093512 59 265 7.0 14.0 0.00 0.00 0.00 97 1011.4
20240222093012 59 225 9.0 12.0 0.00 0.00 0.00 97 1010.7
20240222092512 59 250 8.0 10.0 0.00 0.00 0.00 97 1011.5
20240222092012 60 224 7.0 13.0 0.00 0.00 0.00 97 1010.6
20240222091511 60 225 8.0 19.0 0.00 0.00 0.00 97 1011.5
20240222091011 60 227 7.0 20.0 0.00 0.00 0.00 97 1010.8
20240222090514 60 213 10.0 18.0 0.00 0.00 0.00 97 1010.0
20240222090009 60 198 8.0 12.0 0.00 0.00 0.00 97 1010.0
20240222085511 60 209 8.0 13.0 0.00 0.00 0.00 97 1010.0
20240222085008 60 211 7.0 12.0 0.00 0.00 0.00 97 1010.2
20240222084507 60 220 7.0 12.0 0.00 0.00 0.00 97 1010.3
20240222084008 60 205 7.0 13.0 0.00 0.00 0.00 97 1010.3
20240222083606 60 187 9.0 14.0 0.00 0.00 0.00 97 1010.3
20240222083005 60 189 8.0 15.0 0.00 0.00 0.00 96 1010.3
20240222082504 60 206 7.0 12.0 0.00 0.00 0.00 96 1010.3
20240222082005 60 166 7.0 12.0 0.00 0.00 0.00 96 1010.4
20240222081505 60 202 6.0 13.0 0.00 0.00 0.00 96 1010.3
20240222081004 60 186 6.0 14.0 0.00 0.00 0.00 96 1010.3
20240222080505 60 197 8.0 14.0 0.00 0.00 0.00 96 1010.3
20240222080003 60 201 8.0 15.0 0.00 0.00 0.00 96 1010.5
20240222075503 60 205 8.0 15.0 0.00 0.00 0.00 96 1010.5
20240222075003 60 165 8.0 16.0 0.00 0.00 0.00 96 1010.4
20240222074502 60 186 9.0 18.0 0.00 0.00 0.00 96 1010.4
20240222074002 60 174 10.0 18.0 0.00 0.00 0.00 96 1010.5
20240222073502 60 205 7.0 17.0 0.00 0.00 0.00 96 1010.5
20240222073100 60 180 7.0 17.0 0.00 0.00 0.00 96 1010.6
20240222072559 60 167 8.0 15.0 0.00 0.00 0.00 95 1010.5
20240222072059 60 194 8.0 14.0 0.00 0.00 0.00 95 1010.6
20240222071558 60 191 9.0 15.0 0.00 0.00 0.00 95 1010.6
20240222071100 60 173 10.0 15.0 0.00 0.00 0.00 95 1010.5
20240222070557 60 170 9.0 18.0 0.00 0.00 0.00 95 1010.7
20240222070057 60 175 12.0 20.0 0.00 0.00 0.00 95 1010.6
20240222065559 60 172 12.0 20.0 0.00 0.00 0.00 95 1010.5
20240222065055 60 179 12.0 19.0 0.00 0.00 0.00 95 1010.7
20240222064555 60 171 11.0 18.0 0.00 0.00 0.00 95 1010.9
20240222064056 60 171 11.0 18.0 0.00 0.00 0.00 95 1011.0
20240222063654 60 171 13.0 21.0 0.00 0.00 0.00 95 1010.9
20240222063052 60 166 13.0 21.0 0.00 0.00 0.00 95 1010.8
20240222062551 61 150 14.0 20.0 0.00 0.00 0.00 94 1010.9
20240222062050 61 171 14.0 23.0 0.00 0.00 0.00 94 1011.0
20240222061552 61 182 11.0 19.0 0.00 0.00 0.00 94 1011.1
20240222061049 61 171 13.0 23.0 0.00 0.00 0.00 94 1011.0
20240222060548 61 202 11.0 23.0 0.00 0.00 0.00 94 1010.9
20240222060047 61 186 13.0 22.0 0.00 0.00 0.00 93 1011.1
20240222055547 61 166 14.0 22.0 0.00 0.00 0.00 93 1011.2
20240222055046 61 183 15.0 20.0 0.00 0.00 0.00 93 1011.3
20240222054546 61 193 12.0 22.0 0.00 0.00 0.00 93 1011.3
20240222054045 61 155 13.0 22.0 0.00 0.00 0.00 93 1011.4
20240222053548 61 178 13.0 22.0 0.00 0.00 0.00 93 1011.4
20240222053045 61 168 13.0 22.0 0.00 0.00 0.00 93 1011.4
20240222052546 61 165 12.0 24.0 0.00 0.00 0.00 93 1011.5
20240222052045 62 175 13.0 24.0 0.00 0.00 0.00 92 1011.5
20240222051545 62 159 12.0 23.0 0.00 0.00 0.00 92 1011.7
20240222051045 62 178 14.0 20.0 0.00 0.00 0.00 92 1011.6
20240222050544 62 169 14.0 20.0 0.00 0.00 0.00 91 1011.6
20240222050104 62 163 15.0 20.0 0.00 0.00 0.00 91 1011.7
20240222045549 62 205 12.0 24.0 0.00 0.00 0.00 91 1011.8
20240222045045 62 198 16.0 24.0 0.00 0.00 0.00 91 1011.8
20240222044546 63 168 12.0 25.0 0.00 0.00 0.00 90 1011.9
20240222044044 63 197 14.0 25.0 0.00 0.00 0.00 90 1011.9
20240222043544 63 153 10.0 22.0 0.00 0.00 0.00 90 1011.9
20240222043043 63 165 16.0 24.0 0.00 0.00 0.00 90 1012.1
20240222042543 63 164 9.0 18.0 0.00 0.00 0.00 89 1012.1
20240222042042 63 184 11.0 19.0 0.00 0.00 0.00 89 1012.1
20240222041542 63 192 10.0 19.0 0.00 0.00 0.00 88 1012.0
20240222041042 64 161 12.0 19.0 0.00 0.00 0.00 88 1012.2
20240222040541 64 153 10.0 19.0 0.00 0.00 0.00 87 1012.2
20240222040041 64 169 12.0 19.0 0.00 0.00 0.00 87 1012.2
20240222035541 64 191 10.0 17.0 0.00 0.00 0.00 87 1012.2
20240222035043 64 163 10.0 17.0 0.00 0.00 0.00 86 1012.2
20240222034545 64 165 13.0 18.0 0.00 0.00 0.00 86 1012.2
20240222034048 65 148 11.0 22.0 0.00 0.00 0.00 85 1012.3
20240222033540 65 161 11.0 22.0 0.00 0.00 0.00 84 1012.2
20240222033048 65 148 12.0 18.0 0.00 0.00 0.00 84 1012.2
20240222032539 65 188 11.0 20.0 0.00 0.00 0.00 83 1012.2
20240222032040 66 148 11.0 21.0 0.00 0.00 0.00 82 1012.3
20240222031539 66 158 14.0 21.0 0.00 0.00 0.00 81 1012.2
20240222031040 66 174 14.0 20.0 0.00 0.00 0.00 81 1012.1
20240222030539 66 196 11.0 21.0 0.00 0.00 0.00 80 1012.0
20240222030038 67 146 14.0 22.0 0.00 0.00 0.00 79 1012.0
20240222025539 67 171 11.0 22.0 0.00 0.00 0.00 77 1011.9
20240222025039 67 165 11.0 18.0 0.00 0.00 0.00 76 1011.9
20240222024538 68 159 11.0 19.0 0.00 0.00 0.00 74 1012.0
20240222024038 68 159 12.0 20.0 0.00 0.00 0.00 73 1012.0
20240222023538 67 138 10.0 17.0 0.00 0.00 0.00 72 1012.0
20240222023037 67 162 7.0 17.0 0.00 0.00 0.00 72 1011.9
20240222022537 68 156 6.0 18.0 0.00 0.00 0.00 72 1011.8
20240222022039 68 163 8.0 14.0 0.00 0.00 0.00 72 1011.7
20240222021538 68 162 7.0 10.0 0.00 0.00 0.00 72 1011.7
20240222021036 68 186 5.0 13.0 0.00 0.00 0.00 71 1011.5
20240222020536 68 172 7.0 13.0 0.00 0.00 0.00 71 1011.4
20240222020036 68 175 7.0 13.0 0.00 0.00 0.00 71 1011.0
20240222015536 68 173 7.0 19.0 0.00 0.00 0.00 71 1010.9
20240222015036 68 171 8.0 17.0 0.00 0.00 0.00 71 1010.7
20240222014541 68 159 11.0 21.0 0.00 0.00 0.00 71 1010.6
20240222014037 68 177 11.0 21.0 0.00 0.00 0.00 71 1010.5
20240222013533 68 181 10.0 18.0 0.00 0.00 0.00 71 1010.5
20240222013033 68 175 9.0 20.0 0.00 0.00 0.00 71 1010.6
20240222012533 68 157 13.0 17.0 0.00 0.00 0.00 71 1010.6
20240222012033 68 188 9.0 19.0 0.00 0.00 0.00 71 1010.6
20240222011533 68 169 15.0 19.0 0.00 0.00 0.00 72 1010.5